GFSSW_850_thetae_057.txt.gz
Theta_e
299 299 300 300 300 300 300 300 301 301 302 302 302 302 303 305 305 304 304 304 305 310 309 310 311 312 311 314 318 321 326 328 328 327 326 326 324 326 327 326 326 326 327 327 336
299 299 299 300 300 300 300 301 301 301 302 302 302 302 304 308 308 309 310 305 307 313 313 311 310 310 310 313 317 316 319 326 326 325 325 325 324 325 324 324 324 325 326 326 333
305 303 301 300 300 300 301 301 301 301 301 302 302 303 305 312 315 310 310 310 309 308 309 310 307 312 311 312 314 314 318 321 322 322 323 323 323 322 322 323 324 324 325 325 327
307 307 306 305 302 300 300 301 301 301 301 303 303 303 306 317 315 312 312 309 310 311 309 307 310 312 309 310 312 312 313 316 317 318 319 319 320 320 321 321 322 323 323 324 326
304 306 307 307 307 303 300 301 301 301 301 303 304 304 306 314 314 312 312 312 313 313 313 313 313 311 309 309 311 310 311 313 313 314 314 316 319 320 320 320 321 321 322 324 325
302 304 306 307 307 307 301 301 301 301 302 306 304 305 306 312 311 311 311 311 311 312 312 312 311 311 310 310 309 310 310 310 311 311 312 314 315 316 317 317 318 318 319 320 321
309 306 304 306 307 306 301 301 301 301 302 307 304 305 306 306 311 311 310 309 310 311 312 310 310 311 311 309 310 310 309 308 310 311 312 314 314 315 317 317 318 318 319 319 321
309 310 306 305 307 303 302 302 301 302 303 308 305 306 306 313 311 310 310 309 310 310 310 310 310 311 311 310 309 309 306 307 308 311 311 314 314 316 315 315 315 315 316 317 318
309 310 307 305 306 303 302 306 310 310 306 309 309 315 316 315 311 310 310 310 310 310 310 310 310 311 310 307 306 306 307 308 309 309 310 311 311 311 313 313 313 314 314 314 315
308 309 309 305 305 304 311 310 314 313 312 313 314 314 313 314 312 311 311 310 310 310 310 311 310 307 304 305 309 310 309 310 310 311 310 310 310 311 312 313 313 313 313 313 314
309 310 310 305 306 309 311 312 310 311 310 310 312 312 314 312 311 310 310 310 310 309 307 308 306 308 308 307 308 309 310 310 309 310 310 309 310 311 310 311 311 312 313 313 314
309 310 309 305 310 311 312 312 311 310 309 310 310 310 310 312 311 310 311 310 309 308 307 305 307 308 308 308 308 308 308 310 310 312 311 310 311 310 310 310 311 311 312 313 313
309 309 309 305 311 312 312 311 311 311 308 309 311 311 310 311 310 310 311 310 309 307 307 307 308 309 309 310 312 311 312 312 312 312 310 309 310 310 310 310 311 312 312 312 313
308 310 309 305 312 311 312 311 311 311 310 315 312 311 311 311 310 311 311 311 308 307 307 307 308 309 309 311 312 311 312 312 312 311 310 310 310 309 309 309 309 310 311 311 312
309 310 308 309 312 313 312 312 311 312 313 315 310 311 311 310 311 312 311 310 308 308 307 307 308 308 308 311 312 310 312 311 311 309 309 310 308 308 309 308 308 308 311 314 314
309 310 305 311 313 313 312 311 313 313 315 311 310 310 310 310 310 311 310 310 309 307 307 306 308 309 311 312 311 311 310 307 306 308 309 309 309 308 308 308 308 311 314 314 314
306 307 306 309 313 310 309 313 312 313 310 309 309 309 309 310 310 310 309 308 307 308 308 308 307 311 312 311 308 307 306 307 307 307 309 308 309 310 309 310 313 312 313 313 313
309 307 307 309 312 310 312 310 314 313 309 309 309 308 311 311 311 311 310 309 311 307 305 305 306 310 313 310 309 309 306 307 309 310 308 308 309 310 312 313 313 314 313 313 312
311 313 314 314 312 312 312 311 314 311 310 309 308 310 311 311 311 311 310 312 311 310 310 309 310 310 310 309 309 309 309 307 308 307 307 308 309 310 311 313 313 312 312 312 311
314 315 314 314 313 312 308 312 313 311 310 309 308 310 310 311 312 312 312 312 313 311 308 310 311 310 310 310 309 307 307 307 306 311 312 309 310 311 310 310 312 311 311 312 311
312 314 314 311 311 314 310 312 313 311 310 310 309 310 310 312 311 311 311 311 311 312 310 310 309 310 310 309 308 307 309 309 307 308 308 309 310 309 311 312 312 311 311 311 311
312 309 313 311 309 306 309 310 310 310 311 310 309 309 310 311 310 311 311 312 310 311 312 311 308 311 310 309 308 308 308 308 304 305 312 310 311 310 309 308 309 310 311 312 312
311 312 313 312 304 304 304 308 309 311 311 310 309 309 308 309 310 311 312 311 309 309 311 309 308 311 309 307 306 310 311 309 309 307 311 312 310 309 309 309 310 310 311 312 311
308 305 308 309 307 305 306 307 310 310 310 308 309 308 308 309 308 309 310 310 308 309 311 312 308 310 311 309 306 310 310 311 312 313 312 311 310 310 310 309 310 311 311 311 312
304 303 303 300 302 303 304 307 307 309 308 308 307 307 308 307 307 307 308 307 307 307 309 308 309 309 310 311 311 312 312 313 313 313 315 313 311 310 309 309 310 312 312 312 316
302 304 303 303 304 303 303 304 306 307 306 307 306 305 305 304 305 306 306 305 307 307 308 306 308 311 311 310 310 311 311 311 311 311 313 313 312 311 311 311 310 310 310 311 315
300 302 305 302 301 302 301 303 304 304 305 307 304 305 305 305 306 306 306 306 305 306 305 306 306 308 310 311 311 312 311 313 313 313 313 313 312 311 311 310 309 309 309 310 312

GFSSW_850_thetae_060.txt.gz
Theta_e
303 301 300 300 300 300 300 300 301 301 301 302 302 302 303 305 308 306 305 304 304 304 305 309 311 312 311 312 317 322 326 327 326 326 325 325 323 324 325 325 324 325 325 324 324
307 306 304 303 301 300 300 300 301 301 301 301 302 303 303 310 312 311 312 305 303 311 312 311 310 310 310 312 316 317 318 323 325 325 325 325 324 324 323 322 322 323 324 323 323
303 306 307 306 306 303 301 300 300 301 301 302 303 303 305 314 313 311 309 310 310 311 310 309 308 311 310 311 313 313 316 320 322 322 322 321 321 321 320 320 322 321 322 322 322
302 303 304 306 307 307 305 301 300 301 301 302 304 303 305 314 312 312 312 311 311 311 308 306 306 311 308 308 311 312 312 316 318 319 318 317 317 317 318 318 319 320 320 320 321
309 307 305 305 306 307 307 302 301 301 301 301 305 303 305 311 312 311 312 312 312 312 312 312 311 310 309 308 310 310 310 311 312 313 314 314 314 314 316 316 317 317 318 318 319
309 309 309 305 305 307 305 301 301 301 301 303 304 304 305 308 311 311 311 311 310 310 312 312 311 311 310 309 309 309 309 309 311 311 312 312 313 314 315 316 316 317 317 318 318
308 308 309 307 305 306 303 302 301 301 301 305 304 304 305 306 311 310 310 309 309 309 311 310 310 310 310 309 309 309 309 307 308 310 310 312 312 313 314 315 316 315 315 316 317
308 308 309 308 305 304 302 302 302 301 302 305 306 305 306 311 310 310 310 309 310 310 310 311 310 310 310 309 308 308 305 306 307 309 310 312 312 313 312 312 313 313 313 314 314
308 309 310 307 305 304 309 311 312 312 306 306 308 310 314 312 311 310 310 310 310 309 310 310 309 310 308 306 305 305 306 308 308 308 309 311 310 310 312 312 312 312 312 313 313
307 309 310 306 306 309 311 310 312 312 311 312 312 313 313 314 312 310 310 310 309 310 309 309 309 305 303 304 308 309 309 309 309 308 309 309 308 310 311 311 311 312 312 312 313
305 309 310 306 306 311 312 311 310 310 310 310 310 312 311 314 310 310 310 310 309 309 306 306 306 307 307 306 308 309 309 309 308 310 310 309 309 309 310 310 310 311 312 312 312
305 309 310 306 311 312 312 311 310 310 309 311 310 310 309 310 311 310 310 310 309 307 306 305 306 307 308 307 307 307 308 310 309 310 311 309 309 309 309 309 310 311 311 312 312
308 310 310 305 312 312 311 311 310 311 308 309 311 310 310 310 311 310 310 310 308 306 306 306 307 308 309 310 310 310 310 311 311 311 308 308 307 308 309 310 310 310 311 311 311
309 310 310 307 312 311 311 311 311 311 309 313 312 311 311 311 310 311 310 310 307 306 305 306 307 308 308 310 310 310 311 311 310 308 307 309 308 307 307 307 308 308 309 310 311
309 311 309 309 312 312 312 311 311 312 311 314 310 310 310 310 310 311 310 310 307 307 306 307 307 308 308 310 310 308 311 310 310 308 308 307 307 306 306 308 307 307 310 311 312
305 307 305 311 312 312 311 310 312 310 314 310 309 308 308 309 309 310 310 309 308 307 306 305 307 307 307 311 310 308 308 305 304 305 307 306 307 306 306 308 307 310 313 313 313
308 306 307 311 311 311 309 312 311 311 309 308 308 307 308 310 310 310 309 308 307 307 307 307 307 309 311 310 307 305 304 306 306 305 306 306 307 306 307 308 307 311 313 313 312
311 311 311 313 312 312 311 309 313 312 308 308 308 307 309 310 310 311 310 310 311 306 305 308 308 310 312 309 308 307 305 306 309 309 305 306 307 306 307 308 310 312 313 313 312
313 313 313 312 312 312 311 310 311 311 311 310 308 308 310 311 310 310 310 312 311 310 310 310 310 309 310 309 308 308 308 305 306 305 305 306 306 307 308 308 309 311 312 312 311
312 313 313 310 310 312 308 312 311 311 310 309 307 309 310 310 311 311 311 312 312 311 308 309 311 310 310 309 308 307 306 307 304 310 311 308 307 308 307 307 307 309 310 309 310
311 314 313 311 311 312 308 310 312 311 310 310 309 308 309 310 310 310 310 311 311 311 310 309 310 310 310 309 308 306 308 307 304 303 306 307 308 306 307 308 309 306 309 309 310
311 308 312 312 309 303 307 309 309 309 311 310 308 308 309 309 310 310 310 311 310 311 311 310 309 311 311 309 307 306 307 307 304 305 311 310 311 309 307 306 307 308 309 312 312
306 311 312 312 304 304 303 307 308 309 311 309 309 309 307 308 309 309 310 309 308 309 311 310 309 311 309 307 306 310 310 307 306 305 311 312 310 307 307 307 308 308 311 312 312
303 304 305 308 305 304 304 305 309 308 309 307 307 307 307 307 307 308 308 309 307 308 309 311 308 311 309 307 304 309 309 309 309 313 311 311 311 310 309 309 307 311 311 310 310
301 301 302 299 300 302 303 304 307 307 306 306 306 304 305 306 306 307 306 306 307 307 307 308 310 309 309 310 310 310 311 311 311 311 312 312 311 311 310 309 309 310 309 309 309
300 301 301 302 302 301 302 304 304 305 305 305 305 304 304 304 305 306 306 306 306 305 307 305 307 308 310 310 311 311 310 310 310 311 311 311 311 311 311 310 309 309 309 309 309
296 300 303 300 300 302 299 303 303 302 304 305 304 303 303 304 305 304 304 304 305 305 305 307 306 308 310 309 310 311 310 310 310 312 311 312 311 310 309 310 310 309 309 309 308

GFSSW_850_thetae_063.txt.gz
Theta_e
304 306 306 305 303 301 300 300 300 301 301 301 302 302 303 306 311 310 310 306 304 305 304 308 311 311 311 313 318 324 325 325 325 325 325 325 325 324 324 325 324 324 324 323 322
302 303 305 306 306 305 303 301 300 301 301 301 302 303 303 310 312 310 311 307 303 305 307 307 310 310 310 312 315 321 322 323 325 325 325 325 324 324 323 324 324 323 322 322 321
308 306 305 305 305 306 306 304 301 301 301 301 302 304 304 313 313 311 308 309 310 310 311 310 309 311 310 312 314 317 319 321 324 324 324 324 322 322 322 323 324 321 320 320 320
309 308 308 306 305 306 307 307 302 301 301 301 302 304 304 311 312 311 312 312 311 310 306 308 308 311 312 312 312 314 315 317 320 321 320 323 318 319 319 320 319 318 318 318 319
307 308 308 309 305 305 306 305 301 301 301 301 303 304 304 310 312 311 311 311 311 311 312 311 309 310 312 311 311 313 313 313 313 313 315 315 318 318 318 316 316 317 317 317 318
308 308 308 309 306 305 304 302 301 301 301 301 305 304 305 309 311 311 311 310 310 310 311 312 311 311 311 311 312 311 311 312 312 313 312 314 316 315 317 315 315 315 316 317 317
307 308 309 309 306 305 303 302 302 301 301 301 306 304 304 305 311 311 310 309 309 309 310 311 311 310 310 311 310 310 311 311 312 312 313 313 314 315 313 313 315 315 315 314 314
305 308 309 309 305 304 304 305 306 302 301 303 307 307 305 309 309 310 310 309 309 309 310 310 310 309 310 309 310 311 310 311 311 311 312 313 316 314 312 312 313 313 313 313 313
304 306 309 308 306 308 310 310 312 311 305 304 308 310 313 313 311 310 310 309 309 309 309 310 309 309 309 311 311 310 310 311 312 312 313 312 313 313 312 312 312 312 313 313 313
305 307 310 306 306 311 310 311 312 311 311 312 311 312 313 314 312 311 310 310 309 309 309 309 309 311 310 311 312 312 312 312 312 312 313 313 313 313 312 312 312 312 312 312 313
309 309 310 307 310 311 311 311 310 309 310 310 310 312 311 312 311 311 310 309 309 309 310 308 311 311 311 311 311 311 311 311 311 312 312 312 312 312 312 312 312 312 311 312 312
309 310 310 308 311 312 311 310 310 310 311 311 310 310 309 309 311 310 310 310 309 310 308 309 310 310 310 310 310 310 311 311 313 312 312 312 312 312 312 312 312 312 312 311 311
310 310 310 308 311 311 311 311 311 311 310 310 310 310 309 309 311 311 310 309 310 309 308 309 310 309 310 310 311 311 312 313 311 312 311 312 310 311 311 310 311 311 311 310 310
308 311 308 309 311 311 311 312 311 311 314 313 312 311 310 310 311 310 310 310 309 310 308 309 308 309 310 310 313 312 313 312 311 311 310 311 308 311 311 311 311 311 313 313 312
306 310 306 311 311 312 311 310 310 312 315 314 311 310 310 310 310 311 310 310 311 310 309 310 309 309 310 311 312 311 312 312 311 311 311 310 310 311 311 311 312 312 312 314 314
305 305 308 310 312 311 310 310 312 317 315 311 309 309 310 309 310 310 310 309 308 310 309 310 308 309 310 312 311 311 311 309 309 310 310 310 310 310 311 311 312 311 311 312 314
309 309 310 311 311 310 309 312 316 317 310 310 309 310 309 312 312 312 311 310 311 311 311 310 309 310 311 312 311 310 311 311 310 310 309 310 310 310 311 311 312 311 311 312 314
312 312 312 310 312 312 311 314 318 313 309 310 310 310 310 312 312 312 312 312 312 309 310 312 311 311 312 311 311 311 311 312 311 309 309 309 310 310 310 310 310 311 312 313 312
312 314 312 311 310 312 311 316 315 312 311 311 311 310 311 311 311 311 312 313 313 312 313 312 310 310 311 311 311 311 311 310 311 310 311 310 310 310 311 311 311 312 313 311 311
309 311 312 311 311 312 313 314 313 312 311 310 310 310 311 310 310 311 311 312 313 312 311 312 314 311 311 310 309 311 310 311 312 312 311 310 310 310 311 310 311 313 311 311 311
311 313 312 312 311 311 315 313 313 312 310 311 311 310 310 310 311 311 311 311 312 312 312 311 313 312 311 311 311 311 311 312 312 312 312 311 311 311 311 311 312 311 311 310 312
305 312 312 312 312 305 312 309 308 310 310 311 310 311 310 311 311 311 310 310 311 311 313 311 313 313 311 310 310 310 311 312 314 313 313 314 313 311 311 311 311 311 311 311 312
303 308 310 308 313 309 306 307 307 309 310 311 310 310 309 310 311 311 311 309 309 311 311 312 314 314 311 309 309 311 311 311 311 311 312 314 313 311 311 312 312 312 312 312 312
301 307 303 306 304 305 305 305 309 308 308 307 308 308 308 309 309 309 310 309 308 308 308 310 312 312 311 310 310 311 311 311 312 315 313 313 313 312 312 313 313 312 312 313 312
300 303 302 302 303 303 304 305 307 308 307 306 307 307 307 308 308 308 308 308 307 307 308 310 311 311 311 311 311 311 312 312 312 313 314 312 312 312 313 314 313 313 312 312 312
299 300 300 302 301 303 304 305 306 306 305 305 306 307 306 307 307 307 307 307 307 308 309 310 311 311 311 311 312 312 311 311 311 311 312 313 313 313 312 312 312 312 312 312 311
295 297 302 300 301 303 302 304 304 303 303 304 306 305 304 304 304 305 305 305 306 308 309 309 311 310 310 309 310 311 311 311 311 312 312 314 314 313 313 313 312 312 311 311 310

GFSSW_850_thetae_069.txt.gz
Theta_e
309 308 306 305 305 306 306 304 302 301 301 302 302 302 303 305 311 315 318 317 313 308 306 312 314 314 316 319 321 322 326 328 329 328 329 328 329 327 326 326 328 327 328 329 327
308 308 309 308 306 305 306 306 305 302 301 302 302 302 304 308 312 320 317 310 308 305 308 311 312 315 317 318 320 323 324 325 326 328 328 327 329 328 327 326 327 328 327 328 327
309 309 309 309 308 306 305 306 307 305 302 302 302 302 304 311 320 316 311 310 309 306 314 312 312 314 317 319 320 322 323 324 324 324 325 327 327 328 329 328 326 326 327 327 326
306 308 309 310 309 307 305 306 307 306 302 301 302 302 304 310 324 318 311 311 312 315 313 312 312 314 317 320 320 322 322 323 323 322 323 325 326 327 328 328 327 325 326 325 325
306 306 308 310 310 306 306 306 305 303 301 301 301 303 304 318 318 316 311 310 314 315 315 313 313 314 316 318 319 320 321 321 321 321 321 322 325 326 327 327 327 325 323 325 325
303 305 307 309 310 306 306 304 303 302 302 301 301 304 309 316 316 317 315 315 315 314 315 315 316 315 315 317 318 317 318 318 319 320 319 321 323 323 324 325 326 323 322 324 327
307 306 307 310 308 306 304 304 302 302 302 301 302 305 314 314 313 316 315 315 314 314 314 315 314 314 315 316 316 316 317 318 318 319 320 319 320 321 320 320 322 322 321 323 326
309 309 309 311 307 307 310 310 310 310 302 301 306 313 316 311 311 313 314 315 314 314 314 314 313 314 315 315 316 317 317 317 318 319 318 318 319 320 319 319 320 320 321 322 325
310 310 310 308 308 310 310 311 312 310 304 305 312 317 317 312 310 312 313 313 313 313 313 313 312 314 315 316 316 317 316 317 318 319 319 319 319 320 319 319 320 320 320 321 324
309 310 311 307 311 311 310 310 311 311 311 311 316 317 316 314 313 314 313 313 312 312 313 313 314 316 316 316 317 317 318 318 318 319 318 318 318 319 319 319 319 319 319 319 323
309 311 311 308 311 312 312 316 318 320 318 318 317 317 316 315 315 314 313 312 313 313 315 315 316 316 317 317 317 316 317 319 319 318 318 318 319 319 319 319 319 318 318 318 320
310 311 309 309 311 312 315 316 315 314 316 316 314 314 314 314 315 314 313 313 314 315 316 316 316 316 315 316 316 316 317 317 317 317 317 318 318 318 319 319 318 318 318 318 318
308 311 307 310 312 314 315 314 314 315 317 317 314 314 313 314 314 315 314 314 315 315 316 316 316 315 315 315 315 315 316 317 317 318 318 317 318 318 318 318 317 317 317 317 317
306 308 306 311 315 314 317 314 313 315 320 320 315 315 313 314 315 314 314 313 315 315 316 316 316 315 314 314 315 316 316 316 316 317 318 318 318 319 318 318 317 317 317 317 317
310 308 309 311 316 316 315 314 313 316 328 318 316 315 314 315 315 315 314 314 315 316 317 316 316 315 314 314 315 315 316 316 317 317 317 317 317 317 318 318 317 317 317 318 319
311 310 310 315 315 314 313 313 316 324 326 318 316 315 315 315 315 315 314 313 314 316 316 316 316 316 315 315 315 315 315 316 316 316 316 317 317 317 318 318 318 317 316 316 316
302 311 312 310 315 315 315 315 322 324 319 317 316 316 316 316 316 317 316 317 317 317 317 317 317 316 316 315 315 315 315 316 317 317 318 318 317 317 317 317 317 318 315 314 315
305 304 313 314 315 315 315 319 322 319 318 317 315 316 316 316 317 317 317 318 317 317 318 317 317 317 318 315 315 316 317 316 320 320 319 317 317 317 316 316 315 314 314 315 316
305 312 316 318 314 314 317 320 321 320 316 316 315 316 317 317 316 316 317 317 317 316 319 321 317 316 316 316 316 316 317 317 318 318 318 318 319 318 316 315 315 314 315 317 316
307 316 317 316 313 315 319 319 318 317 316 315 315 316 317 317 316 316 316 316 316 315 317 317 317 316 316 316 316 316 316 318 318 317 317 317 317 317 317 317 315 316 316 316 316
315 316 318 313 313 314 318 318 316 314 313 315 315 316 316 316 316 316 315 315 315 315 316 316 318 317 315 317 317 316 315 317 317 321 322 320 318 317 317 316 317 316 316 316 316
314 317 316 311 316 317 316 314 311 311 310 312 312 314 316 315 315 315 314 314 313 314 314 315 317 318 315 315 316 316 317 319 321 320 319 318 317 316 316 317 317 316 316 316 316
312 313 314 309 318 316 313 312 310 310 311 313 314 314 314 315 315 314 313 313 313 313 313 316 317 318 316 316 317 317 316 316 316 318 320 321 320 317 317 317 316 316 316 316 316
310 315 313 311 311 312 312 312 311 309 310 311 312 312 313 313 313 313 313 312 312 312 312 312 315 315 316 315 315 315 316 315 315 320 317 317 316 316 317 317 317 316 316 316 316
311 313 311 313 313 312 311 311 311 310 310 310 311 311 312 312 312 312 312 311 311 311 311 312 313 313 313 313 312 312 312 313 315 316 316 315 315 316 316 317 316 315 315 316 315
307 309 309 309 311 312 311 311 310 309 309 309 309 309 310 311 311 311 310 311 311 312 311 312 315 313 314 313 313 314 313 313 313 313 314 314 314 314 314 314 315 315 317 317 316
304 304 306 311 313 312 312 309 308 307 306 307 307 308 310 310 308 308 308 309 310 311 311 313 314 314 316 313 314 314 313 313 313 314 313 313 313 315 314 315 317 316 317 316 315

GFSSW_850_thetae_072.txt.gz
Theta_e
309 308 308 309 307 306 306 306 305 303 302 302 302 302 303 304 310 312 317 320 317 317 311 307 315 316 316 318 320 321 325 327 326 327 328 328 329 328 327 325 327 328 329 329 329
308 309 309 309 309 307 306 306 307 305 302 302 302 302 303 306 311 315 320 319 315 309 307 310 311 315 317 317 319 321 324 324 324 326 327 327 328 329 328 327 327 328 329 328 328
306 306 307 309 310 309 306 305 306 308 304 302 302 302 304 306 317 321 319 311 309 307 314 316 313 314 316 318 319 320 323 323 323 323 324 325 326 327 329 329 328 327 329 329 328
304 305 306 308 310 309 306 305 307 307 306 302 302 302 304 306 325 317 315 311 310 309 318 314 313 314 316 318 319 320 321 322 322 322 323 324 324 325 326 328 329 328 327 327 327
304 304 305 308 310 309 306 306 305 304 303 302 302 302 304 320 319 319 314 311 312 317 317 315 315 315 316 317 319 320 321 321 322 322 322 323 323 323 324 326 328 328 327 326 326
308 308 307 309 310 307 306 304 303 303 302 302 302 302 306 318 319 318 314 313 319 315 317 316 317 317 316 317 318 318 319 320 321 321 321 322 322 322 323 324 326 327 328 326 325
310 310 309 311 309 306 306 308 308 304 302 302 301 303 313 316 313 317 316 316 316 315 316 316 316 316 316 317 317 317 318 318 319 319 319 319 321 320 321 322 324 324 326 325 324
310 310 311 311 307 308 310 310 310 310 304 302 303 307 316 315 314 314 317 316 316 315 315 315 315 315 315 316 317 317 318 318 318 319 319 319 319 320 320 320 321 321 321 322 323
309 311 312 308 309 310 310 310 311 310 304 305 309 313 318 314 312 313 314 315 315 315 314 315 314 314 315 316 316 317 316 318 318 319 319 319 319 320 319 319 321 320 321 320 322
310 311 312 307 310 311 311 311 314 311 311 311 314 318 319 317 315 311 314 315 315 314 314 314 315 316 316 316 316 317 317 317 318 319 319 319 319 320 319 320 320 320 321 321 321
309 311 311 308 311 312 314 319 320 321 321 320 321 318 318 317 316 316 314 314 314 314 315 316 316 317 317 318 318 318 318 317 318 319 320 319 319 319 320 319 319 320 320 320 320
306 311 309 309 311 314 316 319 316 316 317 317 318 317 316 316 316 316 315 315 315 316 316 316 317 317 317 317 316 317 318 318 318 319 319 319 318 319 319 320 320 320 320 320 319
309 308 307 310 311 315 316 316 315 316 318 318 319 316 315 314 316 316 315 315 316 316 316 317 317 318 318 316 316 316 316 317 317 318 318 318 318 318 319 319 319 319 320 320 320
311 308 307 311 317 317 318 317 315 317 320 322 318 316 315 315 316 316 316 316 317 316 316 316 318 317 317 317 316 316 316 316 317 317 317 318 319 320 321 321 321 319 319 318 318
303 311 309 309 309 317 317 315 314 318 330 320 319 316 316 316 317 317 316 316 316 316 317 317 317 317 317 316 316 316 316 316 316 317 318 318 318 318 319 319 319 320 318 318 318
306 304 311 315 315 318 316 316 316 324 329 320 317 316 316 316 316 316 316 315 315 316 317 317 316 317 317 317 316 316 316 316 316 317 318 318 318 319 319 320 320 321 318 317 318
307 306 305 312 317 316 317 316 322 326 322 320 318 317 317 317 317 318 318 318 317 317 318 318 319 319 318 317 317 316 316 315 317 318 319 318 319 321 320 320 319 320 318 318 318
309 308 305 310 316 316 317 319 322 321 321 320 318 317 316 317 317 318 318 318 318 318 319 320 322 320 318 319 319 319 318 317 317 318 317 319 323 320 321 318 317 318 317 317 316
309 318 315 319 318 315 317 321 321 321 320 318 317 315 317 318 318 318 317 318 318 318 319 319 318 318 318 318 318 319 318 317 320 320 319 318 320 320 320 320 317 316 316 316 316
310 318 319 319 316 315 317 319 320 319 318 317 316 316 316 317 317 318 318 317 317 317 317 318 319 316 316 317 317 318 317 321 321 323 321 319 318 319 319 320 319 317 315 315 317
312 319 320 317 315 315 319 320 320 317 314 313 314 315 315 315 315 317 317 316 316 316 317 317 319 318 316 315 318 317 319 318 319 321 320 320 318 319 318 319 319 317 316 317 317
311 319 318 312 314 318 320 317 315 315 313 313 313 313 314 316 317 317 316 315 315 315 316 316 318 318 315 315 316 316 316 318 320 321 320 321 320 319 317 318 319 317 317 317 316
309 315 317 313 317 317 316 315 315 314 313 312 314 314 315 314 315 315 314 314 313 314 315 315 315 316 315 316 317 315 315 314 315 318 317 320 319 317 318 319 317 317 317 316 316
311 315 316 315 315 315 315 314 314 313 313 311 312 313 313 314 314 314 313 313 313 313 312 312 312 313 315 314 315 316 315 315 315 321 320 317 317 316 318 317 316 317 317 316 317
313 314 314 315 315 315 315 315 314 314 313 312 312 312 312 312 311 312 313 313 313 314 313 313 313 313 312 313 313 313 313 314 315 316 316 315 315 316 317 317 317 316 316 315 315
310 309 309 311 313 315 314 315 314 313 311 310 309 310 310 310 311 312 312 311 311 312 312 314 315 313 314 314 313 314 314 315 314 314 313 313 315 315 316 315 315 316 316 315 317
308 307 307 310 313 313 315 314 312 310 309 308 308 309 309 309 309 309 309 309 311 311 312 312 313 315 316 314 313 314 316 315 315 316 314 315 315 317 317 316 316 317 317 318 319

GFSSW_850_thetae_075.txt.gz
Theta_e
307 307 309 309 309 308 306 305 306 305 303 302 302 302 302 303 305 308 309 316 318 317 315 312 310 315 314 315 317 319 317 319 322 324 324 325 325 327 326 325 325 327 328 329 329
306 306 307 309 310 309 307 305 306 307 306 303 302 302 302 303 307 310 314 320 320 318 312 309 309 314 316 316 316 316 317 319 321 322 322 322 323 323 326 325 325 326 328 329 328
303 304 305 307 310 310 308 305 305 307 308 304 302 302 302 303 312 322 322 320 312 308 308 311 313 313 313 316 316 316 317 318 320 322 322 322 322 323 323 324 326 326 327 328 328
309 308 307 307 310 310 307 305 307 307 307 305 302 302 302 304 322 317 315 311 310 309 313 317 314 313 312 310 315 315 317 318 319 321 321 321 322 322 322 326 327 328 328 328 328
309 309 309 309 311 310 306 306 305 304 303 303 302 302 302 315 316 318 316 311 310 316 316 316 314 314 311 312 314 314 315 318 319 320 320 321 321 321 321 322 322 328 328 327 327
309 310 310 310 311 307 305 305 304 303 303 302 302 302 303 313 319 318 317 314 317 317 316 317 317 316 316 314 312 315 315 316 318 318 320 319 320 320 321 321 321 322 327 328 328
309 310 311 311 309 306 308 309 309 309 304 302 302 302 303 307 316 318 316 316 316 316 315 316 316 315 315 313 316 316 313 314 315 316 315 318 316 317 319 320 320 320 322 327 326
310 311 311 311 307 309 309 310 310 310 306 302 302 305 306 315 313 314 317 317 316 316 315 315 315 315 315 315 315 313 312 313 314 315 316 316 315 317 318 319 320 320 320 321 326
309 311 312 307 309 310 310 309 311 310 305 304 305 311 318 316 315 313 314 316 316 316 315 315 315 314 314 311 311 312 311 312 314 316 316 315 315 316 318 318 319 320 320 320 320
307 311 312 307 310 312 312 312 318 314 312 310 312 315 319 319 317 314 312 314 314 315 315 314 314 312 310 310 311 313 313 314 314 315 315 315 315 316 318 318 318 319 319 319 320
310 308 310 308 311 313 316 318 318 320 319 318 320 319 319 319 317 314 314 314 315 315 313 314 312 311 312 313 314 314 315 315 316 317 316 315 316 316 317 318 317 318 318 320 321
304 308 307 309 310 314 316 317 316 315 315 316 319 319 320 318 316 316 316 315 314 313 313 313 312 314 315 316 316 315 314 313 315 316 316 315 316 316 317 318 318 318 318 320 320
305 309 307 309 314 315 316 318 316 315 316 317 318 318 318 316 315 316 316 315 314 313 313 313 315 316 317 316 316 315 314 314 315 315 315 314 315 315 316 318 318 318 318 319 319
307 305 310 309 313 316 316 317 315 315 317 320 319 318 316 315 315 315 316 315 314 314 314 314 314 316 316 316 315 314 315 315 315 314 314 314 314 314 316 315 316 317 317 317 320
311 308 305 311 314 314 317 317 316 317 326 321 318 316 315 315 316 317 316 316 315 315 314 314 314 314 315 316 316 315 315 314 315 314 313 314 314 314 315 315 315 315 318 318 319
312 310 308 308 315 317 317 317 316 321 328 321 317 316 315 315 316 316 316 315 315 314 314 314 315 315 315 318 318 318 317 313 313 312 312 313 314 315 315 315 316 317 318 319 319
311 309 310 306 311 316 317 317 318 323 324 320 318 317 316 316 316 316 316 315 313 314 314 315 315 317 318 319 318 318 318 319 312 311 314 314 315 315 316 318 318 317 318 318 318
309 311 317 307 309 316 316 317 320 321 321 321 319 317 316 315 314 316 316 315 316 316 316 318 318 317 319 318 318 318 319 320 321 315 316 317 316 316 318 319 318 318 318 319 319
309 313 317 316 313 316 316 318 320 321 320 319 317 317 315 316 316 316 316 317 317 317 316 316 317 317 318 317 316 318 320 318 319 318 320 318 317 317 317 318 319 317 317 317 316
309 315 320 320 318 315 316 317 317 318 317 315 315 315 315 315 314 314 315 317 316 316 315 316 317 317 317 317 316 317 316 318 319 321 321 318 317 316 318 318 317 317 316 316 317
309 316 320 318 316 316 315 317 319 317 315 315 313 312 312 312 312 314 316 316 315 315 314 316 317 317 315 315 314 313 316 317 317 319 321 321 316 318 317 316 317 317 317 316 317
308 313 319 316 316 317 319 321 315 314 314 314 313 313 313 314 315 314 315 315 314 314 314 317 316 317 317 314 314 315 315 316 317 320 318 319 317 316 317 316 316 316 316 316 317
307 310 316 313 316 316 315 316 315 314 314 314 313 312 313 313 313 314 314 314 313 314 315 315 313 311 311 311 314 314 315 313 314 315 317 319 314 316 317 317 316 315 316 316 316
307 315 314 314 314 315 314 315 315 314 314 314 313 313 312 312 312 313 311 312 312 313 313 312 311 311 311 311 311 315 316 314 314 313 313 316 315 314 317 316 315 315 316 316 316
310 313 311 313 311 312 314 316 315 315 312 311 311 310 309 309 310 310 311 312 312 315 312 310 312 312 313 313 312 312 312 311 313 314 315 314 316 314 313 315 314 315 316 315 315
311 309 307 307 310 312 313 314 314 313 312 310 309 309 309 309 309 309 309 309 311 310 310 310 311 312 313 312 312 313 313 313 314 314 314 315 315 314 314 315 314 314 317 315 315
308 308 307 308 310 312 312 311 312 311 310 308 308 307 307 308 308 308 308 309 308 308 309 309 310 311 311 312 312 312 311 315 313 314 315 315 313 314 314 314 314 315 317 315 315

GFSSW_850_thetae_078.txt.gz
Theta_e
302 303 305 307 309 309 307 305 305 306 305 303 302 302 302 302 303 305 307 309 313 315 316 314 312 312 313 312 315 318 314 316 318 320 321 323 322 323 323 323 328 329 327 329 329
308 307 304 305 308 310 308 306 305 306 306 305 303 302 302 303 304 308 309 313 317 317 316 312 310 312 313 315 315 314 313 316 317 319 319 321 321 322 321 322 324 325 327 328 328
309 309 309 307 308 310 309 306 305 306 307 307 303 302 302 303 312 321 319 315 312 311 310 308 308 309 311 315 315 314 315 315 317 319 319 319 320 321 321 320 323 325 325 327 327
308 310 310 309 309 311 308 306 306 306 306 306 303 302 302 303 320 317 316 311 310 309 307 315 316 316 311 310 312 313 315 315 316 317 318 319 320 320 320 321 322 324 324 326 327
309 310 310 310 311 310 306 305 304 303 303 303 302 302 302 306 308 317 317 313 311 312 312 315 316 313 310 310 312 310 311 315 316 317 317 318 318 319 319 320 321 322 322 325 326
310 310 311 312 311 306 306 308 308 305 302 302 302 301 302 307 317 318 317 315 312 315 316 316 317 315 313 311 311 313 312 313 314 315 316 316 317 318 319 320 320 321 321 322 327
308 311 311 311 307 308 309 309 310 309 308 302 302 301 302 306 317 317 316 315 316 316 316 315 315 315 314 312 314 314 312 311 313 314 313 315 314 315 317 318 318 318 319 320 326
307 310 312 307 308 309 309 309 310 310 307 302 301 303 305 313 312 315 316 316 316 316 315 315 315 315 314 313 312 312 310 310 311 314 314 314 314 314 317 317 318 317 318 319 320
309 308 311 307 309 311 311 310 314 313 308 304 304 315 315 315 315 314 313 315 317 317 316 314 314 314 313 310 307 309 310 311 312 312 312 314 314 314 317 317 317 318 318 318 320
304 309 308 308 309 312 314 316 316 318 314 311 309 314 316 318 316 315 313 312 314 314 315 315 313 310 307 307 309 310 311 311 311 312 313 311 312 314 315 315 316 317 317 318 319
307 305 308 308 309 314 316 316 316 317 315 316 316 317 319 319 315 313 312 313 314 314 312 313 310 310 310 310 312 312 312 312 313 313 314 313 313 313 314 315 314 315 316 317 318
311 308 308 308 311 313 315 316 316 317 314 315 315 316 316 317 320 316 315 314 313 312 312 311 310 312 312 312 313 313 313 313 312 313 314 312 312 313 313 313 316 315 317 318 318
308 312 309 310 313 317 316 317 316 315 314 315 316 316 317 317 319 318 316 315 313 312 311 311 312 314 314 313 314 313 313 312 313 313 313 312 312 312 313 314 316 317 318 318 318
308 311 311 308 310 314 316 317 316 315 315 319 319 319 318 317 315 316 315 315 313 312 312 311 313 314 313 313 314 313 317 317 315 313 313 313 313 312 312 313 314 315 315 316 316
311 309 312 309 307 315 317 317 316 316 319 323 318 317 317 315 315 316 315 315 314 313 312 313 313 312 313 314 317 317 318 317 316 313 311 312 310 313 313 313 313 312 315 317 317
312 308 312 311 308 316 316 315 317 318 324 322 316 315 313 314 315 315 315 315 315 313 312 313 314 313 314 317 317 317 317 315 315 309 312 312 311 313 312 313 313 315 317 317 318
312 309 312 316 309 316 316 317 315 320 321 320 317 316 315 314 314 314 314 314 313 312 312 313 313 313 317 318 316 315 315 317 316 317 317 314 312 312 312 313 314 314 317 317 318
315 310 314 308 307 316 315 316 319 318 319 318 316 316 317 315 314 314 314 313 312 312 313 314 316 316 318 317 317 317 314 313 318 317 316 316 318 314 314 315 315 317 318 317 317
316 310 316 315 312 314 315 316 319 319 319 315 315 315 314 314 313 312 312 314 315 314 314 314 316 315 317 316 315 318 318 317 318 317 319 317 316 315 315 314 317 317 317 316 314
314 310 319 319 315 316 313 315 316 317 315 315 314 314 312 311 311 311 312 315 316 315 313 315 314 315 316 316 315 316 315 316 315 313 319 318 318 317 316 315 317 315 314 316 315
311 309 319 320 318 316 313 314 316 317 314 314 313 312 311 311 311 312 314 315 315 314 313 313 314 315 313 314 313 312 315 315 313 313 312 317 315 317 316 316 316 316 317 316 316
310 307 314 318 314 314 317 318 314 314 314 314 312 312 312 312 313 313 314 314 314 313 313 314 312 314 314 313 313 314 314 313 313 316 319 317 317 314 314 315 314 315 317 317 316
310 308 314 316 312 313 313 314 314 314 314 313 313 312 312 312 311 314 313 313 311 312 313 313 311 310 309 308 310 313 314 315 314 311 313 310 311 312 313 311 313 314 316 316 316
309 310 312 311 311 310 312 314 315 315 314 310 310 310 309 309 309 310 310 311 311 313 314 311 308 308 309 309 308 312 313 313 313 310 311 314 313 312 313 313 314 313 314 316 317
310 311 307 308 308 308 310 312 313 314 312 310 309 310 309 308 308 309 309 310 310 314 310 307 309 310 310 311 313 312 312 311 312 313 313 312 312 315 314 312 313 314 316 315 315
308 309 308 307 308 310 311 312 311 311 312 310 308 307 307 307 307 308 307 307 308 308 307 306 308 310 311 311 310 312 311 310 311 312 312 313 314 313 314 314 314 314 316 316 316
307 306 306 307 309 309 311 312 311 310 310 310 309 308 307 307 307 307 307 307 306 307 306 306 306 308 309 311 311 311 313 315 315 315 314 314 314 313 313 314 314 314 314 313 313

GFSSW_850_thetae_084.txt.gz
Theta_e
308 308 309 308 307 307 308 308 306 305 305 305 304 303 303 303 303 303 305 306 308 310 312 311 311 311 311 314 315 316 312 314 317 319 319 320 318 320 320 320 321 321 321 322 326
309 309 309 309 308 309 309 308 305 305 305 306 305 303 302 303 303 310 311 308 311 308 313 314 313 311 312 312 314 313 310 313 314 316 317 317 317 318 318 319 319 320 322 321 325
308 310 310 310 310 310 309 306 305 306 306 306 306 303 302 302 314 318 313 313 314 313 316 314 310 310 311 313 312 311 311 311 315 316 317 316 316 317 317 316 318 319 319 320 321
306 309 311 311 311 309 306 305 305 304 304 304 305 303 302 303 316 317 312 313 315 313 311 308 308 311 308 309 312 312 312 314 314 315 315 314 315 316 316 317 317 318 318 318 319
305 308 310 307 306 306 306 307 308 307 304 303 303 302 302 303 306 317 314 311 310 308 309 314 314 312 308 308 309 310 310 311 312 313 312 313 312 313 314 315 316 317 317 318 319
307 305 308 307 308 308 308 309 309 309 309 304 302 302 302 302 308 315 316 313 311 310 315 315 315 314 313 310 310 309 310 311 312 313 312 312 313 313 315 315 316 316 317 318 318
309 308 306 307 308 310 310 309 310 312 308 306 302 302 302 305 315 317 316 313 311 315 315 315 314 314 313 311 311 311 310 309 310 312 311 312 311 312 315 315 315 316 316 317 317
308 309 307 307 307 310 312 313 312 313 314 304 302 302 305 309 315 317 315 314 314 315 315 315 315 313 313 312 309 309 306 309 309 310 312 312 311 312 315 314 313 314 315 316 316
311 308 310 307 307 309 312 313 314 315 315 308 305 308 312 309 308 316 315 314 315 315 315 315 315 312 310 307 306 304 308 309 310 310 310 311 310 311 315 314 313 314 315 315 316
313 312 310 310 308 309 311 314 315 315 316 312 310 310 312 315 317 312 314 314 314 314 314 313 312 307 304 306 308 309 309 309 310 311 309 309 309 309 312 312 313 314 314 315 315
313 313 313 309 311 311 312 315 315 315 315 317 314 314 315 316 317 317 314 312 312 312 310 310 309 309 308 307 309 309 309 309 309 310 310 309 310 309 310 311 311 314 314 315 315
313 314 312 311 310 309 314 315 315 315 314 315 315 315 315 315 315 317 314 313 311 309 309 308 308 308 308 309 309 309 310 309 310 310 309 309 311 309 309 310 312 313 314 315 315
311 311 312 313 311 310 313 315 316 316 313 314 314 314 314 314 314 316 313 311 310 308 308 308 310 310 310 311 311 310 310 310 311 313 311 310 313 312 310 310 312 313 314 314 315
309 310 310 313 311 310 312 315 316 316 311 313 316 316 315 315 315 317 317 312 311 310 308 309 309 310 310 310 310 310 309 311 316 315 315 312 316 313 312 310 309 311 313 314 315
306 308 310 314 311 311 314 316 316 316 316 317 317 317 316 316 314 316 317 315 312 311 309 311 311 310 311 311 310 311 312 315 316 314 312 312 309 313 311 312 310 311 311 313 314
305 309 313 314 312 311 315 316 316 317 318 319 315 314 315 314 314 313 316 316 314 311 310 310 311 310 310 312 312 315 316 314 311 310 312 313 311 313 312 311 310 311 312 312 313
309 313 313 314 312 310 316 316 314 319 315 317 315 314 312 312 313 313 312 312 311 312 311 311 311 311 312 313 314 312 312 313 312 313 316 312 312 312 311 312 311 312 314 313 313
312 311 314 312 313 313 314 315 314 314 317 315 314 314 315 312 312 312 312 311 311 310 310 311 313 313 316 314 313 312 312 312 314 314 314 313 314 312 310 311 314 313 314 314 315
311 313 316 315 307 312 315 314 310 319 314 314 314 314 313 311 311 310 310 310 311 310 311 312 313 314 316 314 313 315 314 312 313 311 310 311 312 311 311 312 313 313 313 312 313
312 312 318 311 314 314 309 310 313 315 314 314 313 313 312 311 311 310 310 312 314 313 310 311 312 312 315 314 313 314 313 314 309 311 312 312 311 311 311 312 313 312 312 312 313
313 312 311 314 317 314 312 313 315 315 315 314 312 312 311 311 311 312 312 313 313 312 310 311 310 311 312 312 312 313 314 311 309 309 310 313 310 308 312 313 311 311 312 312 312
311 309 312 317 314 309 313 312 313 315 315 315 313 311 311 311 311 313 314 314 311 311 310 311 313 311 312 310 311 310 311 310 309 310 314 312 312 310 308 310 310 311 312 313 315
309 309 312 313 312 307 308 311 313 313 315 314 313 312 310 309 309 311 312 311 310 310 311 312 311 312 311 309 309 312 312 310 308 306 309 313 311 309 308 309 312 311 313 312 314
309 307 310 309 308 307 309 310 312 312 313 313 313 311 311 311 308 308 308 309 309 308 311 313 310 311 312 311 307 308 310 311 309 304 310 311 311 310 310 309 311 312 312 312 311
308 307 306 305 306 306 308 311 311 311 313 312 313 312 310 310 307 307 308 307 308 307 309 307 308 308 308 309 308 308 309 309 310 310 310 310 310 309 310 311 310 312 312 311 310
307 306 306 306 307 308 308 311 311 312 312 312 312 311 310 312 309 309 308 306 306 307 307 304 307 308 308 308 308 309 309 309 309 309 309 309 309 309 311 311 311 311 310 309 309
305 304 306 306 307 307 309 310 311 309 310 310 311 310 310 310 310 308 306 305 305 305 305 304 304 306 307 308 309 309 309 309 311 311 311 312 312 313 311 311 311 309 307 306 307

GFSSW_850_thetae_087.txt.gz
Theta_e
308 309 310 309 309 308 308 308 306 305 305 305 304 303 302 302 302 303 305 305 306 306 311 310 309 309 311 315 315 317 320 320 320 320 321 320 321 320 319 320 320 321 321 321 321
306 309 310 310 310 310 309 308 305 305 305 306 305 304 303 302 303 308 312 307 307 306 312 312 312 311 311 312 315 317 319 319 318 319 320 319 318 318 318 318 318 319 319 320 319
305 307 310 309 309 309 307 305 305 305 306 306 306 304 302 302 313 317 312 309 309 309 312 314 312 311 312 312 313 313 318 316 316 317 317 317 317 317 317 318 318 318 318 318 319
308 306 308 306 306 306 306 306 306 306 304 303 304 304 302 303 317 317 312 314 309 310 316 313 309 310 312 314 313 314 314 314 315 315 316 316 315 315 315 316 316 316 317 317 318
308 309 306 306 308 308 308 309 309 309 307 303 302 302 302 303 307 316 312 312 313 312 310 308 311 311 313 311 311 314 313 313 313 312 312 313 313 315 315 315 316 316 316 316 317
309 308 308 307 307 309 310 308 310 311 309 308 302 302 302 304 307 316 313 311 308 308 312 312 313 312 311 312 313 311 311 313 313 314 313 314 315 314 315 315 315 315 316 316 316
311 311 309 309 307 308 311 311 311 312 314 306 302 301 302 304 309 315 315 312 310 314 314 315 315 313 312 313 311 312 314 313 313 314 314 313 314 314 314 314 314 316 316 315 316
313 313 313 309 309 307 310 313 313 313 313 312 303 302 304 306 312 316 315 312 312 315 316 315 314 313 312 311 311 313 312 314 314 312 313 313 315 315 314 314 315 314 315 315 315
313 313 311 313 309 309 308 311 313 315 314 313 306 307 311 311 310 316 315 313 314 314 315 315 315 312 312 314 314 312 313 313 315 313 314 314 315 315 315 314 315 315 315 314 315
313 313 312 311 311 310 310 311 314 315 315 313 310 311 311 314 310 313 316 314 315 314 313 312 312 314 312 313 313 313 313 313 314 315 314 315 315 316 315 315 314 314 315 314 314
310 309 310 311 313 310 310 313 315 314 314 316 314 313 314 316 316 318 313 315 313 313 315 311 315 315 315 314 313 313 313 314 314 315 313 316 317 317 316 316 316 316 316 316 315
307 307 308 309 313 311 310 314 315 315 315 315 315 315 315 315 315 316 314 312 312 314 312 313 314 314 314 312 312 312 314 315 315 314 314 316 317 317 317 316 315 316 316 316 316
304 305 307 310 313 310 309 315 316 315 315 314 314 314 315 314 315 315 313 312 313 312 312 314 314 312 312 313 313 314 314 315 315 315 316 317 317 317 316 314 315 315 315 315 315
303 304 306 309 313 312 310 314 316 316 316 315 316 316 315 314 315 315 314 312 313 313 311 313 313 312 313 313 314 315 314 314 314 316 317 317 318 318 317 317 316 316 316 315 314
309 311 311 312 311 312 313 315 316 315 317 318 316 316 315 315 315 316 316 312 314 314 313 315 313 313 314 314 313 315 313 315 316 317 318 317 318 318 317 317 317 316 315 316 316
307 309 310 312 312 311 311 315 315 318 317 318 316 316 316 316 314 314 316 315 314 314 313 314 312 313 315 314 313 316 316 317 316 318 318 318 318 318 317 317 316 316 316 316 315
310 311 311 312 312 308 313 316 316 316 317 316 315 315 315 316 316 315 315 317 317 316 316 316 315 315 313 314 316 316 317 318 318 318 319 317 317 317 316 316 315 316 316 315 314
311 313 311 313 312 312 314 317 314 316 316 315 314 315 317 314 314 313 314 314 314 314 315 315 316 314 315 315 316 317 318 318 320 319 318 316 317 317 315 314 314 315 316 314 314
313 314 311 312 312 311 315 316 312 318 315 315 314 315 316 312 312 312 312 313 313 313 316 315 315 314 316 316 316 318 318 317 318 318 319 316 315 315 314 314 315 315 314 313 314
313 313 312 311 314 314 314 313 315 316 315 316 316 313 314 313 315 314 314 314 315 314 313 315 316 313 315 316 315 317 316 319 319 318 316 314 314 313 313 314 315 314 314 313 314
312 312 312 313 315 315 319 315 315 316 315 316 316 315 314 315 315 313 313 313 313 312 313 314 315 314 315 316 315 317 318 317 316 317 317 316 312 314 314 313 313 314 313 313 314
309 313 312 317 318 311 316 312 312 315 315 316 315 313 313 312 314 314 314 314 314 312 312 313 316 315 314 314 312 313 317 318 320 316 318 318 316 312 312 312 313 312 312 313 314
308 309 312 314 316 312 311 312 312 314 315 315 316 315 315 314 313 312 312 311 310 311 312 313 313 314 314 312 312 315 314 315 315 314 313 315 314 313 312 312 312 311 312 314 313
308 312 309 309 308 309 310 312 313 311 313 314 315 314 313 312 312 313 312 309 309 308 311 312 313 314 315 314 313 314 314 314 315 317 316 316 314 313 313 312 312 312 313 313 313
307 309 307 310 309 308 308 310 310 311 312 312 313 313 312 313 312 314 312 312 310 309 309 311 312 311 311 312 312 311 311 312 314 314 315 314 313 312 312 312 312 313 313 313 311
306 306 305 306 307 307 308 310 311 311 311 312 312 311 312 311 311 312 311 310 310 308 309 309 311 311 310 309 309 309 309 309 311 312 312 312 312 312 312 313 314 314 313 311 310
305 304 305 306 307 308 309 308 309 307 308 310 309 309 311 310 309 309 309 309 308 309 308 309 309 309 309 308 310 310 309 309 309 310 310 311 312 315 315 315 314 313 312 310 309

GFSSW_850_thetae_093.txt.gz
Theta_e
308 307 307 306 307 308 310 309 307 306 305 305 304 304 303 303 302 303 309 311 311 310 308 315 314 314 314 317 319 320 324 326 326 328 329 329 329 328 328 327 327 327 327 328 327
311 309 306 306 307 307 306 305 305 306 306 306 305 305 304 303 303 311 312 309 308 307 310 315 314 314 316 318 319 320 321 322 323 324 324 324 326 326 327 326 325 325 325 325 325
311 311 310 307 306 308 308 308 308 306 305 305 306 305 304 302 316 319 315 310 306 307 315 316 315 315 316 318 320 320 321 321 322 323 322 323 323 322 323 324 324 324 324 324 323
312 311 311 310 308 307 309 309 309 309 308 305 304 304 303 310 324 323 312 308 306 307 317 316 316 316 318 319 319 321 321 321 321 322 321 322 321 322 321 321 321 321 321 321 322
312 312 311 310 311 309 307 311 309 312 311 308 303 303 303 317 318 315 312 310 308 314 316 315 316 317 319 320 319 321 321 321 320 320 319 319 320 320 320 320 320 320 320 320 320
311 311 310 310 310 311 309 309 312 313 313 313 305 302 310 316 314 314 315 311 313 314 315 315 316 317 318 319 320 320 319 320 319 319 319 319 319 319 319 319 319 319 320 320 320
309 309 309 308 308 309 312 309 311 312 313 313 310 302 314 313 313 319 318 319 318 317 315 315 316 316 317 319 318 318 319 319 319 319 319 319 320 320 319 319 319 319 319 320 320
305 306 306 305 306 307 311 310 309 311 313 314 312 311 316 311 310 321 319 314 314 314 317 317 317 316 318 319 318 319 319 320 321 320 319 319 320 321 320 319 319 319 319 319 319
302 303 305 306 305 306 311 310 309 311 315 314 314 316 318 312 309 319 318 314 313 317 318 317 318 318 318 320 320 320 320 321 320 321 320 319 319 320 319 319 320 320 320 320 319
304 307 308 309 309 307 310 309 310 314 315 315 316 318 319 316 311 315 319 316 316 317 317 317 318 320 320 320 320 320 321 320 320 320 319 319 320 321 320 320 320 320 320 319 319
308 309 310 310 310 308 309 311 321 320 317 320 321 319 317 316 313 315 317 316 316 317 320 318 320 320 319 319 320 320 319 320 320 320 320 321 321 321 321 321 321 321 321 321 321
310 310 310 310 312 311 310 315 318 317 318 319 319 318 318 318 315 316 317 316 317 320 320 321 320 320 320 320 319 319 319 319 320 320 321 321 321 322 322 321 321 321 321 320 320
311 311 311 311 311 311 316 315 316 318 320 319 318 318 318 317 318 317 317 317 319 320 320 320 321 320 319 319 319 320 320 320 320 321 321 321 321 321 322 321 321 321 320 320 320
311 311 313 312 313 316 316 315 315 317 324 321 319 319 318 317 319 319 316 318 320 320 320 320 320 320 318 319 320 320 320 319 319 320 320 322 323 324 324 324 323 323 322 321 322
312 313 313 312 314 316 316 315 316 319 331 323 321 318 318 318 319 319 318 317 319 319 318 319 318 318 319 319 319 318 319 320 320 321 322 322 323 324 324 325 325 323 323 322 321
311 313 312 315 313 316 316 315 318 325 327 323 321 320 319 318 318 319 318 317 317 318 319 319 319 319 319 319 319 319 320 320 321 322 323 324 325 325 325 325 325 324 322 321 319
311 313 311 314 317 313 314 317 326 325 322 322 321 321 320 319 319 319 320 320 318 318 318 318 319 320 319 319 320 319 321 322 324 325 326 326 326 326 325 324 323 323 321 319 318
311 313 314 314 314 314 317 322 326 321 322 321 320 321 321 320 320 320 319 320 319 320 320 321 322 320 320 320 320 321 322 324 328 327 326 325 327 326 325 323 322 321 319 318 318
312 317 315 315 313 316 321 325 323 323 321 320 321 321 323 322 320 320 321 320 319 319 320 320 322 321 320 320 321 321 322 322 324 325 327 325 325 325 325 324 321 318 317 318 317
313 318 317 316 313 318 321 322 321 320 320 320 322 322 322 322 322 321 321 320 320 319 318 320 322 321 321 320 320 320 321 322 325 329 328 325 326 325 323 322 321 319 317 316 315
316 320 318 316 315 319 324 324 322 319 319 321 322 321 321 321 321 321 321 320 319 319 319 319 320 323 322 322 321 321 322 321 322 323 328 327 324 323 321 321 320 319 317 315 316
318 323 318 318 323 322 324 323 316 319 319 320 320 320 320 319 319 320 320 320 317 317 318 318 319 323 321 320 321 321 320 320 328 328 326 330 328 323 322 320 317 316 316 316 316
316 317 317 317 325 324 322 320 319 320 320 319 319 319 319 320 321 319 319 318 317 317 319 319 321 324 322 322 320 320 320 319 320 321 323 327 324 321 319 320 318 317 317 316 315
315 320 318 317 318 321 320 320 319 317 316 317 318 318 319 319 318 320 319 317 316 316 314 314 319 322 323 324 322 322 320 319 320 325 323 323 321 321 321 321 318 316 316 315 315
314 319 316 320 319 318 317 318 318 317 316 316 317 316 317 318 317 318 317 317 316 315 316 315 319 318 317 318 318 318 317 318 318 318 320 319 319 319 318 317 316 315 315 316 316
313 314 314 315 314 316 313 317 316 315 315 316 316 315 315 315 315 317 315 315 317 315 315 316 319 318 318 317 317 317 316 316 316 316 317 316 316 316 315 314 315 317 317 316 316
311 311 312 312 314 315 316 315 314 312 313 312 313 314 313 313 312 313 312 313 313 314 315 316 316 319 321 317 317 317 315 315 315 315 314 314 316 317 317 317 317 316 316 314 313

GFSSW_850_thetae_096.txt.gz
Theta_e
311 311 310 307 306 308 307 306 306 306 305 305 305 305 304 304 303 302 303 309 310 312 311 314 314 313 314 316 318 320 324 326 326 328 329 329 332 331 330 330 329 329 329 329 328
312 311 311 310 308 307 309 308 308 307 305 305 306 306 305 304 303 304 308 311 311 311 310 313 317 316 316 316 318 321 322 323 325 326 327 327 327 328 329 330 329 328 327 327 326
313 312 312 311 310 310 307 310 309 310 308 307 304 305 305 303 313 317 316 311 311 310 310 316 316 316 316 317 319 320 321 321 322 322 322 323 324 324 325 327 328 326 326 326 326
312 312 312 311 310 310 311 307 311 310 311 308 305 303 304 303 326 324 316 313 308 307 309 316 318 317 318 318 319 320 321 320 320 322 323 323 323 322 323 323 323 323 323 323 323
308 309 309 310 309 308 309 311 309 311 312 313 308 303 303 318 321 320 311 310 307 307 314 319 318 318 318 319 319 320 321 321 321 321 321 322 321 322 322 322 322 321 321 321 321
306 306 306 306 306 306 307 311 310 312 313 313 312 303 305 319 317 316 312 310 311 313 317 318 318 318 319 320 321 320 320 321 321 321 321 321 320 319 320 320 320 320 321 321 321
302 303 303 304 306 307 307 309 311 308 312 312 313 305 313 316 314 318 317 314 314 316 316 317 317 317 318 319 320 320 321 320 320 320 320 320 320 320 320 320 320 320 321 321 321
301 303 305 308 309 311 312 309 311 309 311 314 314 309 317 315 315 321 320 320 319 318 316 316 316 317 317 319 320 319 320 319 321 320 320 320 319 321 321 320 320 320 320 320 321
305 308 309 310 311 312 313 310 310 310 312 314 314 317 320 314 312 316 321 317 315 316 318 319 319 319 318 319 320 320 319 320 320 322 321 320 320 321 321 321 321 320 320 321 320
309 310 310 311 311 312 312 310 310 314 316 315 316 320 320 319 314 313 320 317 315 318 319 319 318 320 320 320 320 321 320 320 320 322 321 321 320 320 321 320 321 321 321 320 320
311 311 311 311 311 311 312 316 322 322 319 321 322 319 319 317 314 313 320 318 316 317 319 319 319 319 320 321 321 320 321 320 322 322 321 321 321 321 321 321 321 321 321 322 321
313 312 311 313 313 312 312 316 319 319 319 319 319 321 320 319 315 316 317 318 317 318 319 320 320 320 320 320 320 320 320 320 321 322 321 321 321 322 322 322 322 322 322 322 322
313 312 311 314 312 313 313 317 317 317 320 322 320 320 319 318 319 317 318 317 319 319 320 321 321 322 320 320 320 320 321 321 320 321 322 322 322 322 322 322 322 322 322 322 322
312 311 312 312 317 319 319 317 316 318 322 324 320 319 319 318 318 319 318 318 318 320 321 321 321 321 321 320 320 321 321 321 320 320 320 321 322 324 323 324 325 324 322 322 322
311 311 313 315 317 319 318 317 317 319 333 324 322 319 319 318 319 319 318 317 319 321 320 320 321 321 320 320 320 319 320 320 320 321 321 321 322 322 324 325 325 326 324 323 323
311 311 312 318 319 316 317 317 318 326 332 324 322 321 320 319 319 320 319 318 317 319 319 320 319 320 320 320 320 320 319 320 320 321 323 322 323 323 325 326 327 326 324 324 322
311 313 312 316 320 317 315 317 325 328 324 324 323 322 321 321 321 320 320 319 319 318 318 318 319 320 320 320 320 320 320 321 322 323 324 323 324 326 329 327 326 325 324 323 321
312 316 316 316 317 316 318 322 329 326 324 323 322 322 322 322 321 321 321 321 320 318 319 322 323 320 319 319 320 320 321 323 326 327 326 326 326 326 327 326 325 323 323 322 320
312 320 320 318 317 318 322 328 327 324 323 322 322 323 323 324 322 322 321 321 321 321 321 322 322 321 322 322 322 321 321 322 324 325 328 326 325 326 326 326 326 324 322 319 319
313 319 321 317 318 320 324 325 324 322 322 322 323 323 324 324 324 323 322 323 322 321 321 320 323 322 322 322 323 321 321 322 323 332 329 325 325 326 326 325 323 323 321 319 318
317 322 321 317 318 320 325 325 324 321 320 322 323 322 322 322 323 323 324 322 321 320 320 321 323 323 321 323 324 324 322 322 323 325 329 329 325 326 324 323 323 323 321 319 317
317 324 320 320 321 323 325 324 320 321 320 321 320 321 321 321 321 322 322 321 320 318 320 319 322 323 321 320 321 322 324 323 328 328 328 329 329 325 326 323 323 320 318 318 317
316 318 320 319 324 325 325 323 320 320 321 320 320 320 320 320 321 321 320 319 319 319 320 321 322 324 322 322 321 322 322 322 322 324 323 325 324 322 323 322 321 321 321 320 318
316 320 320 319 319 321 323 321 321 320 318 318 319 319 319 320 319 320 319 319 318 318 314 315 320 322 323 323 323 323 323 322 322 324 324 323 322 321 321 322 322 320 318 317 317
317 319 319 320 321 320 319 319 319 319 318 317 319 318 317 318 318 318 317 317 317 316 317 318 319 318 318 318 318 319 319 319 321 321 322 320 320 320 321 321 319 316 318 318 318
314 315 315 315 317 317 316 318 318 318 317 318 317 317 316 316 316 316 316 316 316 316 318 317 320 318 318 317 317 318 318 318 319 318 318 318 318 318 316 317 318 318 317 316 316
313 313 313 314 316 316 317 318 317 315 315 315 315 314 315 314 313 313 313 313 315 316 316 316 317 318 319 317 319 321 319 318 318 318 317 317 318 318 319 318 316 316 315 315 314